When you browse on this site, cookies collect data to enhance your experience and personalize the content and advertising you see.
Visit our Privacy Policy to learn more. By continuing to use the site, you agree to this use of cookies and data.
  • In Österreich
  • Länderverzeichnis
  • Für 7 Tage
  • Wassertemperatur
  • Wetterkarte
  • News
  • Widgets
  • user-avatar
    Anmelden

    Stündliche Wetter Asten

    Heute, 5 April, Sonntag

    Zeit Temperatur Niederschläge Wind Luftdruck Luftfeuchtigkeit
    00:00 +5°C° 0 mm 2 m/S 746 mmHg 82%
    01:00 +4°C° 0 mm 2 m/S 746 mmHg 81%
    02:00 +4°C° 0 mm 2 m/S 746 mmHg 80%
    03:00 +4°C° 0 mm 2 m/S 746 mmHg 79%
    04:00 +3°C° 0 mm 2 m/S 746 mmHg 78%
    05:00 +3°C° 0 mm 3 m/S 746 mmHg 75%
    06:00 +4°C° 0 mm 3 m/S 746 mmHg 73%
    07:00 +5°C° 0 mm 3 m/S 747 mmHg 68%
    08:00 +7°C° 0 mm 4 m/S 746 mmHg 62%
    09:00 +10°C° 0 mm 4 m/S 746 mmHg 56%
    10:00 +12°C° 0 mm 5 m/S 746 mmHg 50%
    11:00 +13°C° 0 mm 5 m/S 746 mmHg 47%
    12:00 +15°C° 0 mm 5 m/S 745 mmHg 43%
    13:00 +16°C° 0 mm 5 m/S 745 mmHg 40%
    14:00 +16°C° 0 mm 6 m/S 744 mmHg 41%
    15:00 +16°C° 0 mm 6 m/S 744 mmHg 43%
    16:00 +15°C° 0 mm 6 m/S 744 mmHg 44%
    17:00 +14°C° 0 mm 6 m/S 744 mmHg 48%
    18:00 +11°C° 0 mm 6 m/S 744 mmHg 52%
    19:00 +9°C° 0 mm 5 m/S 744 mmHg 56%
    20:00 +8°C° 0 mm 5 m/S 745 mmHg 58%
    21:00 +7°C° 0 mm 4 m/S 745 mmHg 61%
    22:00 +7°C° 0 mm 4 m/S 745 mmHg 63%
    23:00 +6°C° 0 mm 4 m/S 745 mmHg 66%

    Morgen, 6 April, Montag

    Zeit Temperatur Niederschläge Wind Luftdruck Luftfeuchtigkeit
    00:00 +7°C° 0 mm 3 m/S 745 mmHg 69%
    01:00 +5°C° 0 mm 3 m/S 745 mmHg 71%
    02:00 +5°C° 0 mm 3 m/S 745 mmHg 75%
    03:00 +5°C° 0 mm 2 m/S 745 mmHg 78%
    04:00 +5°C° 0 mm 2 m/S 745 mmHg 81%
    05:00 +6°C° 0 mm 2 m/S 745 mmHg 80%
    06:00 +6°C° 0 mm 2 m/S 745 mmHg 78%
    07:00 +8°C° 0 mm 1 m/S 745 mmHg 77%
    08:00 +9°C° 0 mm 2 m/S 746 mmHg 69%
    09:00 +13°C° 0 mm 2 m/S 746 mmHg 62%
    10:00 +15°C° 0 mm 2 m/S 746 mmHg 54%
    11:00 +16°C° 0 mm 2 m/S 746 mmHg 50%
    12:00 +18°C° 0 mm 2 m/S 745 mmHg 46%
    13:00 +19°C° 0 mm 2 m/S 745 mmHg 42%
    14:00 +20°C° 0 mm 2 m/S 745 mmHg 42%
    15:00 +20°C° 0 mm 2 m/S 745 mmHg 42%
    16:00 +20°C° 0 mm 2 m/S 745 mmHg 43%
    17:00 +18°C° 0 mm 2 m/S 745 mmHg 51%
    18:00 +15°C° 0 mm 2 m/S 745 mmHg 59%
    19:00 +13°C° 0 mm 2 m/S 746 mmHg 67%
    20:00 +12°C° 0 mm 2 m/S 746 mmHg 68%
    21:00 +10°C° 0 mm 2 m/S 747 mmHg 68%
    22:00 +9°C° 0 mm 2 m/S 748 mmHg 69%
    23:00 +8°C° 0 mm 2 m/S 748 mmHg 71%

    übermorgen, 7 April, Dienstag

    Zeit Temperatur Niederschläge Wind Luftdruck Luftfeuchtigkeit
    00:00 +7°C° 0 mm 2 m/S 748 mmHg 72%
    01:00 +8°C° 0 mm 1 m/S 748 mmHg 74%
    02:00 +7°C° 0 mm 1 m/S 748 mmHg 75%
    03:00 +7°C° 0 mm 1 m/S 749 mmHg 76%
    04:00 +6°C° 0 mm 1 m/S 749 mmHg 76%
    05:00 +7°C° 0 mm 1 m/S 749 mmHg 74%
    06:00 +8°C° 0 mm 1 m/S 749 mmHg 71%
    07:00 +8°C° 0 mm 1 m/S 749 mmHg 68%
    08:00 +11°C° 0 mm 1 m/S 749 mmHg 61%
    09:00 +13°C° 0 mm 1 m/S 749 mmHg 54%
    10:00 +16°C° 0 mm 1 m/S 749 mmHg 47%
    11:00 +17°C° 0 mm 2 m/S 749 mmHg 44%
    12:00 +18°C° 0 mm 2 m/S 749 mmHg 41%
    13:00 +19°C° 0 mm 2 m/S 748 mmHg 38%
    14:00 +19°C° 0 mm 2 m/S 748 mmHg 38%
    15:00 +19°C° 0 mm 3 m/S 748 mmHg 39%
    16:00 +19°C° 0 mm 3 m/S 747 mmHg 39%
    17:00 +17°C° 0 mm 3 m/S 747 mmHg 45%
    18:00 +14°C° 0 mm 3 m/S 748 mmHg 51%
    19:00 +11°C° 0 mm 3 m/S 748 mmHg 56%
    20:00 +10°C° 0 mm 3 m/S 748 mmHg 55%
    21:00 +9°C° 0 mm 2 m/S 748 mmHg 54%
    22:00 +8°C° 0 mm 2 m/S 749 mmHg 53%
    23:00 +7°C° 0 mm 2 m/S 749 mmHg 55%

    8 April, Mittwoch

    Zeit Temperatur Niederschläge Wind Luftdruck Luftfeuchtigkeit
    00:00 +6°C° 0 mm 2 m/S 748 mmHg 57%
    01:00 +6°C° 0 mm 2 m/S 748 mmHg 59%
    02:00 +5°C° 0 mm 2 m/S 748 mmHg 60%
    03:00 +5°C° 0 mm 1 m/S 748 mmHg 61%
    04:00 +5°C° 0 mm 1 m/S 748 mmHg 62%
    05:00 +6°C° 0 mm 1 m/S 748 mmHg 61%
    06:00 +6°C° 0 mm 1 m/S 748 mmHg 59%
    07:00 +7°C° 0 mm 1 m/S 748 mmHg 57%
    08:00 +10°C° 0 mm 1 m/S 747 mmHg 51%
    09:00 +12°C° 0 mm 2 m/S 747 mmHg 45%
    10:00 +14°C° 0 mm 2 m/S 747 mmHg 39%
    11:00 +16°C° 0 mm 2 m/S 746 mmHg 37%
    12:00 +17°C° 0 mm 2 m/S 746 mmHg 35%
    13:00 +19°C° 0 mm 2 m/S 745 mmHg 34%
    14:00 +19°C° 0 mm 2 m/S 745 mmHg 35%
    15:00 +19°C° 0 mm 2 m/S 745 mmHg 36%
    16:00 +20°C° 0 mm 1 m/S 744 mmHg 37%
    17:00 +18°C° 0 mm 1 m/S 744 mmHg 45%
    18:00 +14°C° 0 mm 1 m/S 744 mmHg 53%
    19:00 +12°C° 0 mm 1 m/S 744 mmHg 61%
    20:00 +11°C° 0 mm 1 m/S 744 mmHg 62%
    21:00 +10°C° 0 mm 1 m/S 745 mmHg 63%
    22:00 +9°C° 0 mm 1 m/S 745 mmHg 64%
    23:00 +9°C° 0 mm 1 m/S 745 mmHg 65%

    9 April, Donnerstag

    Zeit Temperatur Niederschläge Wind Luftdruck Luftfeuchtigkeit
    00:00 +8°C° 0 mm 1 m/S 744 mmHg 66%
    01:00 +6°C° 0 mm 0 m/S 744 mmHg 67%
    02:00 +6°C° 0 mm 0 m/S 744 mmHg 68%
    03:00 +6°C° 0 mm 0 m/S 744 mmHg 70%
    04:00 +5°C° 0 mm 0 m/S 744 mmHg 71%
    05:00 +6°C° 0 mm 0 m/S 744 mmHg 69%
    06:00 +7°C° 0 mm 0 m/S 744 mmHg 68%
    07:00 +8°C° 0 mm 0 m/S 744 mmHg 66%
    08:00 +11°C° 0 mm 1 m/S 744 mmHg 61%
    09:00 +14°C° 0 mm 1 m/S 743 mmHg 56%
    10:00 +16°C° 0 mm 1 m/S 743 mmHg 51%
    11:00 +17°C° 0 mm 2 m/S 743 mmHg 49%
    12:00 +18°C° 0 mm 2 m/S 743 mmHg 46%
    13:00 +20°C° 0 mm 2 m/S 743 mmHg 43%
    14:00 +20°C° 0 mm 2 m/S 742 mmHg 44%
    15:00 +20°C° 0 mm 2 m/S 742 mmHg 45%
    16:00 +20°C° 0 mm 2 m/S 742 mmHg 46%
    17:00 +18°C° 0 mm 2 m/S 742 mmHg 54%
    18:00 +16°C° 0 mm 2 m/S 742 mmHg 62%
    19:00 +14°C° 0 mm 1 m/S 742 mmHg 70%
    20:00 +13°C° 0 mm 1 m/S 743 mmHg 72%
    21:00 +12°C° 0 mm 1 m/S 743 mmHg 74%
    22:00 +11°C° 0 mm 1 m/S 743 mmHg 75%
    23:00 +11°C° 0 mm 1 m/S 743 mmHg 76%

    10 April, Freitag

    Zeit Temperatur Niederschläge Wind Luftdruck Luftfeuchtigkeit
    00:00 +11°C° 0 mm 1 m/S 744 mmHg 76%
    01:00 +10°C° 0 mm 0 m/S 744 mmHg 77%
    02:00 +9°C° 0 mm 0 m/S 744 mmHg 78%
    03:00 +9°C° 0 mm 0 m/S 744 mmHg 78%
    04:00 +9°C° 0 mm 0 m/S 744 mmHg 79%
    05:00 +9°C° 0 mm 0 m/S 744 mmHg 78%
    06:00 +10°C° 0 mm 0 m/S 744 mmHg 76%
    07:00 +11°C° 0 mm 0 m/S 744 mmHg 74%
    08:00 +13°C° 0 mm 0 m/S 744 mmHg 68%
    09:00 +16°C° 0 mm 1 m/S 744 mmHg 62%
    10:00 +19°C° 0 mm 1 m/S 744 mmHg 55%
    11:00 +20°C° 0 mm 1 m/S 744 mmHg 52%
    12:00 +21°C° 0 mm 1 m/S 743 mmHg 48%
    13:00 +21°C° 0 mm 1 m/S 743 mmHg 44%
    14:00 +21°C° 0 mm 1 m/S 743 mmHg 45%
    15:00 +21°C° 0 mm 1 m/S 742 mmHg 46%
    16:00 +21°C° 0 mm 1 m/S 742 mmHg 46%
    17:00 +19°C° 0 mm 1 m/S 742 mmHg 55%
    18:00 +16°C° 0 mm 1 m/S 742 mmHg 64%
    19:00 +14°C° 0 mm 1 m/S 742 mmHg 73%
    20:00 +13°C° 0 mm 1 m/S 742 mmHg 75%
    21:00 +12°C° 0 mm 1 m/S 742 mmHg 77%
    22:00 +11°C° 0 mm 1 m/S 743 mmHg 79%
    23:00 +11°C° 0 mm 1 m/S 743 mmHg 81%
    Mehr zeigen